SO-120
1 56992U 23084BU  24193.59993950  .00028929  00000-0  10048-2 0  9991
2 56992  97.5336 313.2514 0010919 295.5607  64.4504 15.29661675 59914
MRC-100
1 56993U 23084BV  24193.27404083  .00034112  00000-0  11011-2 0  9993
2 56993  97.5335 313.4031 0010418 294.2280  65.7872 15.32003212 59909
UmKA 1 (RS40S)
1 57172U 23091G   24193.68837058  .00006351  00000-0  41662-3 0  9998
2 57172  97.6100 245.4890 0017405  43.1000 317.1587 15.07897598 57186
CubeBel-2 (EU11S)
1 57175U 23091K   24193.69309939  .00008652  00000-0  55433-3 0  9991
2 57175  97.6097 245.4710 0015915  54.8582 305.4135 15.08675350 57183
VERONIKA
1 58261U 23174F   24193.65823222  .00018804  00000-0  82082-3 0  9992
2 58261  97.4592 268.2312 0013189 153.8811 206.3093 15.22104332 37436
KAFASAT
1 58317U 23174BP  24193.61916458  .00025276  00000-0  99183-3 0  9995
2 58317  97.4537 268.8708 0012181 134.2731 225.9509 15.25649747 37488
ENSO
1 58470U 23185J   24193.69690520  .00015796  00000-0  65127-3 0  9991
2 58470  97.4247 260.1723 0012805 186.0112 174.0974 15.24081952 33875
EIRSAT-1
1 58472U 23185L   24193.66039140  .00018601  00000-0  75194-3 0  9998
2 58472  97.4242 260.1991 0012422 186.4792 173.6287 15.24713764 33877
SO-121
1 58567U 23174CY  24193.17404223  .00052645  00000-0  16722-2 0  9992
2 58567  97.4519 269.0171 0012835 146.4083 213.7975 15.32387981 37459
SONATE-2
1 59112U 24043Q   24193.34754567  .00011208  00000-0  53474-3 0  9999
2 59112  97.4815 316.9376 0014551 205.4236 154.6284 15.19151400 19475
KASHIWA
1 59508U 98067WH  24193.40755927  .00238177  00000-0  14197-2 0  9997
2 59508  51.6268 187.3484 0011848  46.6059 313.5925 15.76591473 14308
OBJECT A
1 60203U 24125A   24190.56946133  .00010916  00000-0  51667-3 0  9993
2 60203  97.3213  43.3332 0025925 245.7203 167.8006 15.19219263   672
OBJECT B
1 60204U 24125B   24190.56452311  .00019288  00000-0  86635-3 0  9998
2 60204  97.3223  43.3417 0021463 231.7148 181.9989 15.20989274   668
OBJECT C
1 60205U 24125C   24190.56566853  .00012911  00000-0  58868-3 0  9999
2 60205  97.3217  43.3389 0021360 237.6174 176.1545 15.20564316   660
OBJECT D
1 60206U 24125D   24190.56883171  .00008496  00000-0  39578-3 0  9995
2 60206  97.3220  43.3375 0025651 238.4011 181.7072 15.19848381   668
OBJECT E
1 60207U 24125E   24190.57022269  .00008565  00000-0  40054-3 0  9998
2 60207  97.3220  43.3377 0025917 239.8777 185.5939 15.19705879   668
OBJECT F
1 60208U 24125F   24190.57167409  .00009093  00000-0  42753-3 0  9990
2 60208  97.3219  43.3380 0026083 241.2175 188.9188 15.19499130   679
MESAT1
1 60209U 24125G   24190.56980029  .00010442  00000-0  49625-3 0  9996
2 60209  97.3214  43.3326 0025220 247.3842 166.3046 15.19109044   669
OBJECT H
1 60210U 24125H   24190.61607706  .00008108  00000-0  30231-3 0  9991
2 60210  97.3131  44.6467 0050243 238.0504 185.4372 15.26490133   668
